This is the latest recevied weather packets stored in our database for station/object N4HAC. If no packets are shown the sender has not sent any weather packets the latest 10 day(s).
| Time | Temp. | Humidity | Pressure | Rain* | Wind** | Luminosity | Snow |
|---|---|---|---|---|---|---|---|
| 1777560618 | 15.56° C | 62% | 1004.6 hPa | 0 mm | - | 737 W/m² | - |
| 1777560316 | 15° C | 61% | 1004.5 hPa | 0 mm | - | 124 W/m² | - |
| 1777560013 | 15° C | 62% | 1004.6 hPa | 0 mm | - | 196 W/m² | - |
| 1777559708 | 15.56° C | 65% | 1004.5 hPa | 0 mm | - | 188 W/m² | - |
| 1777559406 | 15° C | 69% | 1004.6 hPa | 0 mm | - | 611 W/m² | - |
| 1777559102 | 15.56° C | 65% | 1004.5 hPa | 0 mm | - | 597 W/m² | - |
| 1777558797 | 15.56° C | 68% | 1004.6 hPa | 0 mm | - | 594 W/m² | - |
| 1777558493 | 15° C | 66% | 1004.6 hPa | 0 mm | - | 163 W/m² | - |
| 1777558190 | 15.56° C | 65% | 1004.7 hPa | 0 mm | - | 422 W/m² | - |
| 1777557886 | 15° C | 66% | 1004.8 hPa | 0 mm | - | 572 W/m² | - |
| 1777557583 | 14.44° C | 69% | 1004.9 hPa | 0 mm | - | 168 W/m² | - |
| 1777557279 | 14.44° C | 68% | 1004.7 hPa | 0 mm | - | 135 W/m² | - |
| 1777556975 | 15° C | 71% | 1005 hPa | 0 mm | - | 266 W/m² | - |
| 1777556671 | 15° C | 68% | 1004.9 hPa | 0 mm | - | 584 W/m² | - |
| 1777556367 | 15° C | 69% | 1005 hPa | 0 mm | - | 282 W/m² | - |
| 1777556062 | 14.44° C | 68% | 1004.7 hPa | 0 mm | - | 471 W/m² | - |
| 1777555762 | 15° C | 69% | 1004.7 hPa | 0 mm | - | 475 W/m² | - |
| 1777555459 | 14.44° C | 71% | 1004.6 hPa | 0 mm | - | 464 W/m² | - |
| 1777555155 | 14.44° C | 72% | 1004.9 hPa | 0 mm | - | 454 W/m² | - |
| 1777554853 | 14.44° C | 71% | 1004.6 hPa | 0 mm | - | 444 W/m² | - |
| 1777554549 | 13.89° C | 73% | 1004.6 hPa | 0 mm | - | 437 W/m² | - |
| 1777554246 | 13.89° C | 73% | 1004.6 hPa | 0 mm | - | 255 W/m² | - |
| 1777553943 | 14.44° C | 71% | 1004.5 hPa | 0 mm | - | 171 W/m² | - |
| 1777553639 | 13.89° C | 74% | 1004.4 hPa | 0 mm | - | 403 W/m² | - |
| 1777553335 | 13.89° C | 74% | 1004.5 hPa | 0 mm | - | 172 W/m² | - |
* Rain latest hour (hover to see other rain measurements)
** Current wind speed in m/s (hover to see current wind gust speed)